Weather reports worldwide

Advertisment
Wilkes-Barre/Scrant PA, United States of America (72513): temperature & dewpoint: 15.02.2019 20:00:00 - 21.02.2019 20:00:00 (EST)Wilkes-Barre/Scrant PA, United States of America (72513): wind speed: 15.02.2019 20:00:00 - 21.02.2019 20:00:00 (EST)Wilkes-Barre/Scrant PA, United States of America (72513): wind direction: 15.02.2019 20:00:00 - 21.02.2019 20:00:00 (EST)Wilkes-Barre/Scrant PA, United States of America (72513): reduced air pressure: 15.02.2019 20:00:00 - 21.02.2019 20:00:00 (EST)Wilkes-Barre/Scrant PA, United States of America (72513): visibility: 15.02.2019 20:00:00 - 21.02.2019 20:00:00 (EST)Wilkes-Barre/Scrant PA, United States of America (72513): precipitation: 15.02.2019 20:00:00 - 21.02.2019 20:00:00 (EST)
Date & Time tt [°C] td [°C] ff [km/h] ff [kn] dd ppp [hPa] vv [km] rr [mm]
21.02.2019 20:00:00 3,9 -3,9 0 0 N 1019,1 16 -
21.02.2019 19:00:00 5,0 -4,4 9 5 WNW 1018,3 16 0,0
21.02.2019 18:00:00 5,6 -1,7 9 5 W 1017,0 16 -
21.02.2019 17:00:00 7,8 -0,6 16 9 SW 1015,6 16 -
21.02.2019 16:00:00 8,9 -0,6 13 7 WSW 1015,3 16 0,0
21.02.2019 15:00:00 8,3 0,6 21 11 W 1014,9 16 -
21.02.2019 14:00:00 7,2 1,1 21 11 WSW 1014,9 16 -
21.02.2019 13:00:00 6,1 1,1 21 11 SW 1014,7 16 0,0
21.02.2019 12:00:00 5,0 0,6 24 13 SW 1015,3 16 -
21.02.2019 11:00:00 3,3 0,6 21 11 WSW 1014,9 15 -
21.02.2019 10:00:00 2,2 0,6 22 12 SW 1015,3 11 0,0
21.02.2019 09:00:00 1,1 0,6 18 10 SW 1014,4 8 -
21.02.2019 08:00:00 0,6 0,0 13 7 SW 1014,6 6 -
21.02.2019 07:00:00 0,0 0,0 15 8 SW 1013,9 6 -
21.02.2019 06:00:00 0,6 0,0 13 7 SW 1013,3 3,2 -
21.02.2019 05:00:00 0,6 0,0 9 5 SW 1013,0 2,8 -
21.02.2019 04:00:00 0,6 0,0 5 3 SW 1012,7 2,8 -
21.02.2019 03:00:00 0,0 0,0 0 0 N 1013,0 6 -
21.02.2019 02:00:00 0,0 0,0 0 0 N 1014,1 3,2 0,3
21.02.2019 01:00:00 0,0 -0,6 8 4 NNW 1014,6 2,8 0,3
21.02.2019 00:00:00 0,0 -0,6 0 0 N 1016,2 2,8 0,0
20.02.2019 23:00:00 0,6 -2,2 8 4 SW 1017,5 11 0,0
20.02.2019 22:00:00 -0,6 -2,2 0 0 N 1019,5 4,0 1,5
20.02.2019 21:00:00 -1,1 -2,8 0 0 N 1021,2 11 0,0
20.02.2019 20:00:00 -1,7 -3,9 5 3 S 1022,7 10 0,0
20.02.2019 19:00:00 -2,2 -3,9 9 5 - 1024,3 6 0,0
20.02.2019 18:00:00 -2,2 -4,4 8 4 - 1024,6 6 0,0
20.02.2019 17:00:00 -2,8 -3,9 0 0 N 1026,0 4,0 0,3
20.02.2019 16:00:00 -2,8 -5,0 0 0 N 1026,7 2,0 0,5
20.02.2019 15:00:00 -3,3 -5,6 0 0 N 1027,9 3,2 0,0
20.02.2019 14:00:00 -3,3 -5,0 0 0 N 1028,8 1,2 0,5
20.02.2019 13:00:00 -3,3 -7,2 0 0 N 1029,5 8 0,5
20.02.2019 12:00:00 -3,9 -5,6 8 4 - 1031,7 0,8 1,0
20.02.2019 11:00:00 -3,9 -6,1 5 3 - 1032,5 1,2 0,0
20.02.2019 10:00:00 -3,9 -10,0 0 0 N 1034,1 14 -
20.02.2019 09:00:00 -4,4 -10,0 8 4 NNE 1033,5 15 -
20.02.2019 08:00:00 -5,6 -10,0 9 5 NE 1033,6 15 -
20.02.2019 07:00:00 -5,6 -10,6 11 6 NE 1034,2 16 0,0
20.02.2019 06:00:00 -5,6 -11,1 5 3 ENE 1033,9 16 -
20.02.2019 05:00:00 -6,1 -11,7 8 4 ENE 1034,6 16 -
20.02.2019 04:00:00 -6,1 -11,7 0 0 N 1034,8 16 0,0
20.02.2019 03:00:00 -6,1 -11,7 0 0 N 1035,8 16 -
20.02.2019 02:00:00 -6,1 -12,2 0 0 N 1035,3 16 -
20.02.2019 01:00:00 -6,1 -12,2 0 0 N 1035,1 16 0,0
20.02.2019 00:00:00 -5,6 -11,7 9 5 NE 1035,2 16 -
19.02.2019 23:00:00 -5,6 -12,8 11 6 ENE 1035,6 16 -
19.02.2019 22:00:00 -4,4 -12,2 9 5 NE 1036,0 16 0,0
19.02.2019 21:00:00 -4,4 -12,2 9 5 N 1036,2 16 -
19.02.2019 20:00:00 -3,9 -13,3 0 0 N 1036,8 16 -
19.02.2019 19:00:00 -3,9 -13,3 9 5 N 1036,0 16 -
19.02.2019 18:00:00 -3,3 -13,3 13 7 NNW 1035,1 16 -
19.02.2019 17:00:00 -2,8 -13,9 13 7 NW 1035,1 16 0,0
19.02.2019 16:00:00 -2,2 -12,8 11 6 NW 1035,2 16 0,0
19.02.2019 15:00:00 -2,2 -12,8 21 11 NW 1035,3 16 0,0
19.02.2019 14:00:00 -2,8 -12,2 21 11 NW 1035,6 16 0,0
19.02.2019 13:00:00 -3,9 -12,8 18 10 NNW 1036,3 16 0,0
19.02.2019 12:00:00 -4,4 -12,2 11 6 NNW 1036,8 16 -
19.02.2019 11:00:00 -5,6 -12,8 22 12 WNW 1036,9 16 -
19.02.2019 10:00:00 -6,1 -12,8 15 8 NNW 1036,5 16 0,0
19.02.2019 09:00:00 -6,7 -12,8 21 11 NNW 1036,0 16 0,0
19.02.2019 08:00:00 -8,3 -13,3 16 9 N 1034,9 16 -
19.02.2019 07:00:00 -8,3 -13,3 16 9 NNW 1034,1 16 -
19.02.2019 06:00:00 -8,3 -11,7 9 5 NW 1033,3 16 0,0
19.02.2019 05:00:00 -7,2 -11,1 13 7 NNW 1032,6 6 0,0
19.02.2019 04:00:00 -6,7 -11,7 13 7 NNW 1031,7 16 0,0
19.02.2019 03:00:00 -6,7 -11,7 13 7 NW 1031,5 16 -
19.02.2019 02:00:00 -6,7 -11,7 16 9 NW 1030,7 16 -
19.02.2019 01:00:00 -6,7 -12,2 15 8 NNW 1030,0 16 0,0
19.02.2019 00:00:00 -6,1 -11,1 15 8 NNW 1029,2 16 -
18.02.2019 23:00:00 -6,1 -10,0 13 7 N 1028,2 16 -
18.02.2019 22:00:00 -6,1 -10,0 11 6 N 1027,2 16 0,0
18.02.2019 21:00:00 -5,6 -9,4 13 7 N 1025,9 16 -
18.02.2019 20:00:00 -5,0 -8,9 16 9 N 1025,1 16 -
18.02.2019 19:00:00 -4,4 -8,9 15 8 NNW 1023,6 16 0,0
18.02.2019 18:00:00 -3,3 -8,3 16 9 NNW 1021,7 16 -
18.02.2019 17:00:00 -2,8 -8,3 28 15 NNW 1019,9 16 -
18.02.2019 16:00:00 -1,7 -7,2 26 14 NNW 1018,2 16 0,0
18.02.2019 15:00:00 -1,1 -7,2 16 9 NW 1016,4 16 -
18.02.2019 14:00:00 -1,1 -6,1 18 10 WNW 1015,2 16 -
18.02.2019 13:00:00 0,0 -5,0 34 18 NNW 1013,6 16 0,0
18.02.2019 12:00:00 0,6 -1,7 28 15 NW 1012,2 4,8 0,0
18.02.2019 11:00:00 1,1 0,0 16 9 SW 1010,9 6 -
18.02.2019 10:00:00 1,1 0,0 18 10 SW 1009,9 8 0,0
18.02.2019 09:00:00 0,6 0,0 18 10 SW 1009,4 8 -
18.02.2019 08:00:00 0,0 0,0 8 4 SW 1008,4 1,6 -
18.02.2019 07:00:00 0,0 -0,6 5 3 SW 1007,7 4,8 -
18.02.2019 06:00:00 0,0 -0,6 0 0 N 1007,4 4,8 -
18.02.2019 05:00:00 0,0 -0,6 5 3 W 1007,4 13 -
18.02.2019 04:00:00 0,0 -1,1 0 0 N 1006,8 8 -
18.02.2019 03:00:00 0,0 -1,7 0 0 N 1008,1 16 0,0
18.02.2019 02:00:00 0,0 -2,2 0 0 N 1009,8 8 0,0
18.02.2019 01:00:00 -0,6 -2,8 0 0 N 1010,3 10 0,0
18.02.2019 00:00:00 -1,1 -3,3 0 0 N 1010,9 8 0,3
17.02.2019 23:00:00 -1,1 -3,3 0 0 N 1011,7 13 0,3
17.02.2019 22:00:00 -1,1 -2,2 0 0 N 1013,0 8 0,0
17.02.2019 21:00:00 -1,7 -2,8 5 3 - 1013,3 8 0,5
17.02.2019 20:00:00 -1,7 -3,9 5 3 ENE 1014,4 2,8 0,3
17.02.2019 19:00:00 -1,1 -4,4 9 5 SE 1015,7 1,2 0,0
17.02.2019 18:00:00 1,1 -8,9 11 6 SSW 1014,7 16 -
17.02.2019 17:00:00 2,2 -10,0 9 5 S 1014,6 16 -
17.02.2019 16:00:00 3,9 -10,0 9 5 SSE 1014,5 16 0,0
17.02.2019 15:00:00 3,3 -10,0 9 5 - 1014,9 16 -
17.02.2019 14:00:00 3,3 -8,3 9 5 WNW 1016,0 16 -
17.02.2019 13:00:00 1,7 -8,3 5 3 - 1018,8 16 0,0
17.02.2019 12:00:00 0,6 -8,3 9 5 W 1020,5 16 -
17.02.2019 11:00:00 -1,1 -9,4 9 5 WNW 1019,4 16 -
17.02.2019 10:00:00 -2,8 -9,4 13 7 NNE 1019,3 16 0,0
17.02.2019 09:00:00 -3,9 -9,4 13 7 NE 1020,3 16 -
17.02.2019 08:00:00 -6,1 -9,4 5 3 E 1021,0 16 -
17.02.2019 07:00:00 -8,3 -10,6 0 0 N 1020,1 16 0,0
17.02.2019 06:00:00 -6,1 -10,0 5 3 NE 1018,9 16 -
17.02.2019 05:00:00 -6,1 -10,0 5 3 N 1018,7 16 -
17.02.2019 04:00:00 -5,0 -9,4 8 4 NNE 1018,9 16 0,0
17.02.2019 03:00:00 -5,0 -10,0 9 5 N 1019,2 16 -
17.02.2019 02:00:00 -4,4 -10,0 11 6 NE 1018,5 16 -
17.02.2019 01:00:00 -4,4 -9,4 8 4 NE 1018,7 16 0,0
17.02.2019 00:00:00 -4,4 -9,4 5 3 NNW 1018,7 16 -
16.02.2019 23:00:00 -5,0 -10,6 13 7 NNW 1018,3 16 -
16.02.2019 22:00:00 -3,9 -9,4 13 7 NNE 1017,2 16 0,0
16.02.2019 21:00:00 -3,3 -9,4 13 7 N 1016,5 16 -
16.02.2019 20:00:00 -2,8 -8,9 16 9 NNE 1016,2 16 -
16.02.2019 19:00:00 -1,7 -8,3 18 10 NNE 1015,3 16 0,0
16.02.2019 18:00:00 -0,6 -8,3 18 10 N 1014,6 16 -
16.02.2019 17:00:00 0,6 -7,8 11 6 N 1014,1 16 -
16.02.2019 16:00:00 0,6 -7,8 18 10 N 1013,6 16 0,0
16.02.2019 15:00:00 1,7 -7,2 16 9 NNW 1013,0 16 -
16.02.2019 14:00:00 1,7 -7,2 18 10 NNW 1012,6 16 -
16.02.2019 13:00:00 0,6 -7,8 21 11 N 1012,7 16 0,0
16.02.2019 12:00:00 0,6 -7,8 28 15 NW 1013,0 16 -
16.02.2019 11:00:00 0,6 -7,8 24 13 NNW 1013,3 16 -
16.02.2019 10:00:00 -0,6 -8,9 28 15 NNW 1013,2 16 0,0
16.02.2019 09:00:00 -1,1 -9,4 22 12 NW 1012,9 16 -
16.02.2019 08:00:00 -1,1 -7,8 21 11 NW 1012,2 16 -
16.02.2019 07:00:00 -1,1 -8,3 16 9 NNW 1011,1 16 0,0
16.02.2019 06:00:00 -1,7 -8,3 13 7 NW 1010,8 16 -
16.02.2019 05:00:00 -2,2 -8,9 0 0 N 1010,6 16 -
16.02.2019 04:00:00 -1,7 -9,4 5 3 NNW 1009,9 16 0,0
16.02.2019 03:00:00 -1,1 -9,4 9 5 N 1009,5 16 -
16.02.2019 02:00:00 0,0 -7,8 11 6 N 1009,1 15 -
16.02.2019 01:00:00 0,6 -6,1 13 7 NNW 1008,8 15 0,0
16.02.2019 00:00:00 2,2 -4,4 8 4 NNE 1007,8 15 -
15.02.2019 23:00:00 2,8 -3,9 0 0 N 1007,3 16 -
15.02.2019 22:00:00 3,3 -3,9 11 6 NNW 1007,0 16 0,0
15.02.2019 21:00:00 6,7 -5,0 18 10 N 1005,8 16 -
15.02.2019 20:00:00 8,3 -1,1 18 10 W 1004,3 16 -

tt = temperature
td = dewpoint
ff = wind speed
dd = wind direction
ppp = reduced air pressure
vv = visibility
rr = precipitation

Next stations